Change the Weather History Date:

Tuesday, March 11, 2014

  Actual Average (KHSV) Record (KHSV)
Temperature  
Mean Temperature 57 °F 52 °F  
Max Temperature 75 °F 63 °F 84 °F (1911)
Min Temperature 39 °F 41 °F 19 °F (1969)
Degree Days  
Heating Degree Days 8 13  
Month to date heating degree days 158  
Since 1 July heating degree days 2610  
Cooling Degree Days 0 0  
Month to date cooling degree days 0  
Year to date cooling degree days 1  
Growing Degree Days 7 (Base 50)    
Moisture  
Dew Point 47 °F    
Average Humidity 67    
Maximum Humidity 100    
Minimum Humidity 41    
Precipitation  
Precipitation 0.00 in 0.17 in 3.76 in (1963)
Month to date precipitation 1.83  
Year to date precipitation 11.56  
Snow  
Snow 0.00 in - - ()
Month to date snowfall  
Since 1 July snowfall  
Snow Depth -    
Sea Level Pressure  
Sea Level Pressure 29.82 in    
Wind  
Wind Speed 3 mph (SW)    
Max Wind Speed 17 mph    
Max Gust Speed 26 mph    
Visibility 10 miles    
Events Rain    
T = Trace of Precipitation, MM = Missing Value Source: NWS Daily Summary

Daily Weather History Graph

Daily Weather History Graph

Search for Another Location

Airport or City:

Trip Planner

Search our weather history database for the weather conditions in past years. The results will help you decide how hot, cold, wet, or windy it might be!

Date:

Astronomy

Mar. 11, 2014 Rise Set
Actual Time 7:00 AM CDT 6:48 PM CDT
Civil Twilight 6:34 AM CDT 7:13 PM CDT
Nautical Twilight 6:05 AM CDT 7:42 PM CDT
Astronomical Twilight 5:36 AM CDT 8:12 PM CDT
Moon 2:32 PM CDT (3/11) 3:44 AM CDT (3/11)
Length of Visible Light 12h 38m
Length of Day
11h 48m
Waxing Gibbous, 78% of the Moon is Illuminated
Mar 11
Waxing Gibbous
Mar 16
Full
Mar 23
Last Quarter
Mar 30
New
Apr 7
First Quarter

Hourly Weather History & Observations

Time (CDT) Temp. Windchill Dew Point Humidity Pressure Visibility Wind Dir Wind Speed Gust Speed Precip Events Conditions
12:15 AM 48.2 °F - 41.0 °F 76% 29.93 in 10.0 mi Calm Calm - N/A   Clear
12:35 AM 46.4 °F - 41.0 °F 81% 29.93 in 10.0 mi Calm Calm - N/A   Clear
12:55 AM 46.4 °F - 41.0 °F 81% 29.92 in 10.0 mi Calm Calm - N/A   Partly Cloudy
1:15 AM 44.6 °F - 41.0 °F 87% 29.92 in 10.0 mi Calm Calm - N/A   Scattered Clouds
1:35 AM 46.4 °F - 41.0 °F 81% 29.92 in 10.0 mi Calm Calm - N/A   Scattered Clouds
1:55 AM 44.6 °F - 41.0 °F 87% 29.91 in 10.0 mi Calm Calm - N/A   Partly Cloudy
2:15 AM 44.6 °F - 41.0 °F 87% 29.91 in 10.0 mi Calm Calm - N/A   Clear
2:35 AM 44.6 °F - 41.0 °F 87% 29.91 in 10.0 mi Calm Calm - N/A   Partly Cloudy
2:55 AM 44.6 °F - 41.0 °F 87% 29.90 in 10.0 mi Calm Calm - N/A   Scattered Clouds
3:15 AM 44.6 °F - 41.0 °F 87% 29.90 in 10.0 mi Calm Calm - N/A   Partly Cloudy
3:35 AM 44.6 °F - 39.2 °F 81% 29.90 in 10.0 mi Calm Calm - N/A   Clear
3:55 AM 44.6 °F - 41.0 °F 87% 29.90 in 10.0 mi Calm Calm - N/A   Clear
4:15 AM 42.8 °F - 41.0 °F 93% 29.90 in 10.0 mi Calm Calm - N/A   Clear
4:35 AM 42.8 °F - 39.2 °F 87% 29.89 in 10.0 mi Calm Calm - N/A   Clear
4:55 AM 42.8 °F - 39.2 °F 87% 29.89 in 10.0 mi Calm Calm - N/A   Clear
5:15 AM 41.0 °F - 39.2 °F 93% 29.89 in 10.0 mi Calm Calm - N/A   Clear
5:35 AM 41.0 °F 39.0 °F 39.2 °F 93% 29.90 in 10.0 mi SSW 3.5 mph - N/A   Clear
5:55 AM 41.0 °F 39.0 °F 39.2 °F 93% 29.90 in 10.0 mi SW 3.5 mph - N/A   Clear
6:15 AM 41.0 °F - 39.2 °F 93% 29.90 in 10.0 mi Calm Calm - N/A   Clear
6:35 AM 41.0 °F - 39.2 °F 93% 29.89 in 10.0 mi Calm Calm - N/A   Clear
6:55 AM 39.2 °F - 39.2 °F 100% 29.89 in 9.0 mi Calm Calm - N/A   Clear
7:15 AM 41.0 °F - 39.2 °F 93% 29.89 in 7.0 mi Calm Calm - N/A   Clear
7:35 AM 41.0 °F - 39.2 °F 93% 29.90 in 8.0 mi Calm Calm - N/A   Clear
7:55 AM 42.8 °F - 39.2 °F 87% 29.90 in 9.0 mi Calm Calm - N/A   Clear
8:15 AM 46.4 °F - 41.0 °F 81% 29.90 in 9.0 mi Calm Calm - N/A   Clear
8:35 AM 48.2 °F - 44.6 °F 87% 29.90 in 9.0 mi Calm Calm - N/A   Clear
8:55 AM 50.0 °F - 44.6 °F 82% 29.90 in 10.0 mi Calm Calm - N/A   Clear
9:15 AM 53.6 °F - 46.4 °F 77% 29.89 in 10.0 mi Calm Calm - N/A   Clear
9:35 AM 57.2 °F - 48.2 °F 72% 29.89 in 10.0 mi Calm Calm - N/A   Clear
9:55 AM 57.2 °F - 48.2 °F 72% 29.89 in 10.0 mi Calm Calm - N/A   Clear
10:15 AM 60.8 °F - 50.0 °F 68% 29.88 in 10.0 mi SSW 3.5 mph - N/A   Clear
10:35 AM 62.6 °F - 50.0 °F 63% 29.88 in 10.0 mi SSW 6.9 mph - N/A   Clear
10:55 AM 62.6 °F - 50.0 °F 63% 29.88 in 10.0 mi South 8.1 mph - N/A   Clear
11:15 AM 66.2 °F - 50.0 °F 56% 29.87 in 10.0 mi SW 3.5 mph - N/A   Clear
11:35 AM 66.2 °F - 50.0 °F 56% 29.85 in 10.0 mi SW 4.6 mph - N/A   Clear
11:55 AM 68.0 °F - 50.0 °F 52% 29.85 in 10.0 mi SW 9.2 mph - N/A   Clear
12:15 PM 68.0 °F - 51.8 °F 56% 29.84 in 10.0 mi South 5.8 mph - N/A   Clear
12:35 PM 68.0 °F - 51.8 °F 56% 29.83 in 10.0 mi South 9.2 mph - N/A   Clear
12:55 PM 69.8 °F - 50.0 °F 49% 29.82 in 10.0 mi SSW 8.1 mph - N/A   Clear
1:15 PM 69.8 °F - 50.0 °F 49% 29.81 in 10.0 mi SSW 3.5 mph - N/A   Clear
1:35 PM 71.6 °F - 50.0 °F 46% 29.80 in 10.0 mi WSW 9.2 mph - N/A   Clear
1:55 PM 71.6 °F - 51.8 °F 50% 29.79 in 10.0 mi SSW 9.2 mph - N/A   Clear
2:15 PM 73.4 °F - 51.8 °F 47% 29.78 in 10.0 mi SW 9.2 mph - N/A   Clear
2:35 PM 73.4 °F - 51.8 °F 47% 29.77 in 10.0 mi SSW 6.9 mph - N/A   Clear
2:55 PM 73.4 °F - 51.8 °F 47% 29.76 in 10.0 mi SW 11.5 mph 16.1 mph N/A   Clear
3:15 PM 73.4 °F - 51.8 °F 47% 29.75 in 10.0 mi SW 12.7 mph 17.3 mph N/A   Clear
3:35 PM 75.2 °F - 50.0 °F 41% 29.74 in 10.0 mi SW 8.1 mph 16.1 mph N/A   Clear
3:55 PM 75.2 °F - 50.0 °F 41% 29.73 in 10.0 mi WSW 12.7 mph 20.7 mph N/A   Clear
4:15 PM 75.2 °F - 50.0 °F 41% 29.73 in 10.0 mi SW 10.4 mph - N/A   Clear
4:35 PM 75.2 °F - 51.8 °F 44% 29.72 in 10.0 mi WSW 12.7 mph 21.9 mph N/A   Partly Cloudy
4:55 PM 75.2 °F - 50.0 °F 41% 29.72 in 10.0 mi WSW 11.5 mph 18.4 mph N/A   Partly Cloudy
5:15 PM 75.2 °F - 51.8 °F 44% 29.72 in 10.0 mi SW 6.9 mph - N/A   Partly Cloudy
5:35 PM 75.2 °F - 50.0 °F 41% 29.71 in 10.0 mi SW 9.2 mph 16.1 mph N/A   Partly Cloudy
5:55 PM 73.4 °F - 50.0 °F 44% 29.71 in 10.0 mi SW 5.8 mph - N/A   Partly Cloudy
6:15 PM 73.4 °F - 50.0 °F 44% 29.71 in 10.0 mi SW 5.8 mph - N/A   Mostly Cloudy
6:35 PM 73.4 °F - 50.0 °F 44% 29.71 in 10.0 mi SSW 4.6 mph - N/A   Overcast
6:55 PM 71.6 °F - 51.8 °F 50% 29.71 in 10.0 mi South 3.5 mph - N/A   Overcast
7:15 PM 71.6 °F - 51.8 °F 50% 29.71 in 10.0 mi SSW 3.5 mph - N/A   Overcast
7:35 PM 69.8 °F - 51.8 °F 53% 29.71 in 10.0 mi SW 4.6 mph - N/A   Overcast
7:55 PM 71.6 °F - 51.8 °F 50% 29.71 in 10.0 mi South 4.6 mph - N/A   Overcast
8:15 PM 71.6 °F - 51.8 °F 50% 29.72 in 10.0 mi SSW 5.8 mph - N/A   Overcast
8:35 PM 71.6 °F - 53.6 °F 53% 29.71 in 10.0 mi SSW 5.8 mph - N/A   Overcast
8:55 PM 71.6 °F - 53.6 °F 53% 29.71 in 10.0 mi SW 6.9 mph - N/A   Overcast
9:15 PM 68.0 °F - 53.6 °F 60% 29.71 in 10.0 mi SW 5.8 mph - N/A   Mostly Cloudy
9:35 PM 68.0 °F - 53.6 °F 60% 29.71 in 10.0 mi SW 5.8 mph - N/A   Mostly Cloudy
9:55 PM 68.0 °F - 53.6 °F 60% 29.71 in 10.0 mi SW 4.6 mph - N/A   Overcast
10:15 PM 68.0 °F - 53.6 °F 60% 29.71 in 10.0 mi SW 8.1 mph - N/A   Overcast
10:35 PM 68.0 °F - 53.6 °F 60% 29.71 in 10.0 mi SW 10.4 mph 18.4 mph N/A   Overcast
10:55 PM 68.0 °F - 55.4 °F 64% 29.71 in 10.0 mi WSW 12.7 mph 25.3 mph N/A   Overcast
11:15 PM 68.0 °F - 55.4 °F 64% 29.71 in 10.0 mi SW 12.7 mph 25.3 mph N/A   Overcast
11:35 PM 64.4 °F - 57.2 °F 77% 29.71 in 9.0 mi SW 17.3 mph 26.5 mph N/A   Overcast
11:55 PM 62.6 °F - 59.0 °F 88% 29.70 in 5.0 mi SW 9.2 mph 19.6 mph N/A Rain Light Rain